Solander Island, British Columbia

4:56 PM PDT on May 27, 2017 (GMT -0700)
Solander Island

Weather History for CWRU - January, 2013

Change the Weather History Date:

Wednesday, January 2, 2013

  Actual Average Record
Temperature  
Mean Temperature 44 °F -  
Max Temperature 47 °F - - ()
Min Temperature 41 °F - - ()
Degree Days  
Heating Degree Days 21    
Moisture  
Dew Point 40 °F    
Average Humidity 78    
Maximum Humidity 87    
Minimum Humidity 66    
Precipitation  
Precipitation 0.00 in - - ()
Sea Level Pressure  
Sea Level Pressure 30.07 in    
Wind  
Wind Speed 37 mph ()    
Max Wind Speed 50 mph    
Max Gust Speed 59 mph    
T = Trace of Precipitation, MM = Missing Value Source: Averaged Metar Reports

Daily Weather History Graph

Daily Weather History Graph

Search for Another Location

Airport or City:

Trip Planner

Search our weather history database for the weather conditions in past years. The results will help you decide how hot, cold, wet, or windy it might be!

Date:

Astronomy

Jan. 02, 2013 Rise Set
Actual Time 8:30 AM PST 4:41 PM PST
Civil Twilight 7:52 AM PST 5:19 PM PST
Nautical Twilight 7:11 AM PST 6:01 PM PST
Astronomical Twilight 6:31 AM PST 6:40 PM PST
Moon 10:58 PM PST (1/2) 10:41 AM PST (1/2)
Length of Visible Light 9h 27m
Length of Day
8h 11m
Waning Gibbous, 74% of the Moon is Illuminated
Jan 2
Waning Gibbous
Jan 4
Last Quarter
Jan 11
New
Jan 18
First Quarter
Jan 26
Full

Hourly Weather History & Observations

Time (PST) Temp. Windchill Dew Point Humidity Pressure Visibility Wind Dir Wind Speed Gust Speed Precip Events Conditions
12:00 AM 43.9 °F 32.6 °F 38.7 °F 82% 30.15 in - ESE 38.0 mph 44.9 mph N/A   Unknown
1:00 AM 44.4 °F 33.4 °F 39.0 °F 81% 30.13 in - ESE 38.0 mph 46.0 mph N/A   Unknown
2:00 AM 45.3 °F 34.6 °F 35.6 °F 69% 30.12 in - ESE 38.0 mph 44.9 mph N/A   Unknown
3:00 AM 46.0 °F 35.8 °F 36.9 °F 70% 30.14 in - ESE 36.8 mph 44.9 mph N/A   Unknown
4:00 AM 46 °F - 41 °F 75% 30.10 in - ESE 42.6 mph - -  
4:00 AM 45.9 °F 34.8 °F 40.6 °F 82% 30.10 in - ESE 42.6 mph 49.5 mph N/A   Unknown
5:00 AM 45.7 °F 34.6 °F 41.5 °F 85% 30.07 in - ESE 42.6 mph 49.5 mph N/A   Unknown
6:00 AM 45.7 °F 34.5 °F 41.9 °F 87% 30.07 in - ESE 43.7 mph - N/A   Unknown
7:00 AM 45.9 °F 34.6 °F 41.7 °F 85% 30.06 in - ESE 44.9 mph 51.8 mph N/A   Unknown
8:00 AM 45.7 °F 34.2 °F 41.4 °F 85% 30.06 in - ESE 46.0 mph 52.9 mph N/A   Unknown
9:00 AM 45.0 °F 33.7 °F 40.3 °F 84% 30.07 in - ESE 41.4 mph 47.2 mph N/A   Unknown
10:00 AM 45 °F - 41 °F 79% 30.08 in - East 40.3 mph - -  
10:00 AM 45.3 °F 34.3 °F 40.6 °F 84% 30.08 in - East 40.3 mph 47.2 mph N/A   Unknown
11:00 AM 46.0 °F 35.3 °F 41.2 °F 83% 30.09 in - ESE 40.3 mph 47.2 mph N/A   Unknown
12:00 PM 46.4 °F 36.0 °F 41.0 °F 81% 30.09 in - ESE 39.1 mph 44.9 mph N/A   Unknown
1:00 PM 46.0 °F 35.3 °F 41.2 °F 83% 30.06 in - ESE 40.3 mph 48.3 mph N/A   Unknown
2:00 PM 46.0 °F 35.1 °F 40.1 °F 80% 30.05 in - ESE 42.6 mph 51.8 mph N/A   Unknown
3:00 PM 46.8 °F - 38.7 °F 73% 30.04 in - ESE 48.3 mph 58.7 mph N/A   Unknown
4:00 PM 46 °F - 40 °F 72% 30.02 in - ESE 43.7 mph - -  
4:00 PM 46.2 °F 35.2 °F 39.7 °F 78% 30.02 in - ESE 43.7 mph 51.8 mph N/A   Unknown
5:00 PM 46.6 °F - 39.4 °F 76% 30.03 in - ESE 46.0 mph 54.1 mph N/A   Unknown
6:00 PM 47.1 °F - 36.9 °F 68% 30.01 in - ESE 49.5 mph 56.4 mph N/A   Unknown
7:00 PM 46.8 °F - 39.4 °F 75% 30.04 in - ESE 42.6 mph 50.6 mph N/A   Unknown
8:00 PM 46.8 °F - 38.8 °F 74% 30.04 in - ESE 40.3 mph 50.6 mph N/A   Unknown
9:00 PM 45.9 °F 35.2 °F 39.4 °F 78% 30.03 in - ESE 39.1 mph 47.2 mph N/A   Unknown
10:00 PM 45 °F - 37 °F 66% 30.05 in - ESE 34.5 mph - -  
10:00 PM 45.0 °F 34.6 °F 37.4 °F 75% 30.05 in - ESE 34.5 mph 43.7 mph N/A   Unknown
11:00 PM 45.5 °F 34.5 °F 39.2 °F 79% 30.03 in - ESE 41.4 mph 50.6 mph N/A   Unknown